Location: Mount Kobau Star Party
(49.1167°N, 119.7333°W)
Time: 16:50:16
(UTC-07:00)

ACS3 Solar Sail - Pass Details

Date: 23 June 2024
Orbit: 921 x 1018 km, 97.5° (Epoch: 18 June)

Event Time Altitude Azimuth Distance (km) Brightness Sun altitude
Rises 20:18:50 0° 109° (ESE) 3,592 4.1 5.8°
Reaches altitude 10° 20:22:10 10° 89° (E) 2,673 3.6 5.3°
Drops below altitude 10° 20:29:16 10° 16° (NNE) 2,735 4.4 4.3°
Enters shadow 21:29:08 -68° 168° (SSE) 12,824 7.4 -3.5°
Maximum altitude 22:08:28 76° 74° (ENE) 986 1.8 -7.9°
